Location: Burtsch�tz
(51.0528°N, 12.1764°E)
Time: 00:30:56
(UTC+00:00)

FALCON 9 DEB - Pass Details

Date: 29 October 2020
Orbit: 383 x 397 km, 53.0° (Epoch: 23 November)

Event Time Altitude Azimuth Distance (km) Brightness Sun altitude
Rises 18:00:28 0° 262° (W) 2,310 8.2 -20.9°
Reaches altitude 10° 18:02:33 10° 265° (W) 1,450 6.9 -21.3°
Enters shadow 18:05:18 56° 295° (WNW) 481 3.5 -21.7°
